sat.trackr.live / text

‹ back to catalog

UNKNOWN

NORAD 82798

UNKNOWN UNKNOWN UNKNOWN

§ Identity

Operator
Country
Launch date
Launch site
Launch vehicle
Mass (kg)
RCS (m²)

External: N2YO · Heavens-Above

§ Orbital elements

Epoch: 2026-09-19T10:56:30.858144Z

Period
101.13 min
Inclination
82.9509°
Eccentricity
0.0030149
Mean motion
14.23972341 rev/d
Perigee alt
790.3 km
Apogee alt
833.6 km
Semi-major
7,190.1 km
B*
5.0666e-4
RAAN
326.5773°
Arg perigee
45.1891°
Mean anomaly
327.5395°
Rev number
35,231

§ Raw data

UNKNOWN1 82798U          26262.45591271  .00001184  00000+0  50666-3 0  99952 82798  82.9509 326.5773 0030149  45.1891 327.5395 14.23972341352311

JSON: /api/v1/satellites/82798 · /tle

For live sub-satellite position, see the globe view (requires WebGL).

§ Visibility from observer

Set your observer location to see the next 7 days of passes ≥ 10°. The values pass through the URL so the page stays shareable.

No JS? Fill the form by hand. The geolocation button needs JavaScript.